LAN255 SCEL-SCTE

Flight info

Callsign LAN255
Flight time 1h 30m
Altitude 29000
Route ANGOD6C ANGOD UQ803 ERUKA DCT SARTO SARTO1B
Aircraft A321/M-SDE3FGHIRWY/LB1

Departure

Time 2026-05-07 14:16
Airport Comodoro Arturo Merino Benítez International Airport (SCEL)

Arrival

Time 2026-05-07 15:46
Airport El Tepual International Airport (SCTE)
Time Latitude Longitude Altitude Speed Heading
2026-05-07 14:00 -33.39603 -70.79697 1565 ft 0 kts 177°
2026-05-07 14:02 -33.39595 -70.79697 1565 ft 4 kts 177°
2026-05-07 14:02 -33.39568 -70.79699 1565 ft 4 kts 177°
2026-05-07 14:02 -33.39543 -70.79699 1565 ft 4 kts 199°
2026-05-07 14:02 -33.39525 -70.79682 1565 ft 4 kts 249°
2026-05-07 14:03 -33.39520 -70.79655 1564 ft 1 kts 267°
2026-05-07 14:06 -33.39522 -70.79690 1565 ft 6 kts 267°
2026-05-07 14:06 -33.39523 -70.79727 1565 ft 5 kts 267°
2026-05-07 14:06 -33.39526 -70.79789 1565 ft 8 kts 267°
2026-05-07 14:07 -33.39528 -70.79847 1565 ft 6 kts 268°
2026-05-07 14:07 -33.39530 -70.79898 1565 ft 5 kts 268°
2026-05-07 14:07 -33.39531 -70.79942 1565 ft 7 kts 270°
2026-05-07 14:07 -33.39524 -70.80010 1565 ft 8 kts 289°
2026-05-07 14:08 -33.39487 -70.80043 1566 ft 8 kts 346°
2026-05-07 14:08 -33.39390 -70.80052 1566 ft 21 kts 357°
2026-05-07 14:08 -33.39236 -70.80060 1566 ft 22 kts 357°
2026-05-07 14:08 -33.39088 -70.80068 1567 ft 21 kts 357°
2026-05-07 14:09 -33.38948 -70.80076 1567 ft 20 kts 357°
2026-05-07 14:09 -33.38815 -70.80082 1567 ft 19 kts 358°
2026-05-07 14:09 -33.38688 -70.80089 1567 ft 18 kts 356°
2026-05-07 14:09 -33.38569 -70.80097 1567 ft 16 kts 357°
2026-05-07 14:10 -33.38458 -70.80103 1567 ft 16 kts 357°
2026-05-07 14:10 -33.38351 -70.80109 1566 ft 15 kts 357°
2026-05-07 14:10 -33.38249 -70.80114 1566 ft 14 kts 357°
2026-05-07 14:10 -33.38154 -70.80119 1566 ft 13 kts 358°
2026-05-07 14:11 -33.38056 -70.80124 1566 ft 18 kts 357°
2026-05-07 14:11 -33.37972 -70.80128 1566 ft 18 kts 357°
2026-05-07 14:11 -33.37849 -70.80135 1566 ft 17 kts 358°
2026-05-07 14:11 -33.37699 -70.80142 1566 ft 15 kts 358°
2026-05-07 14:12 -33.37596 -70.80147 1567 ft 14 kts 358°
2026-05-07 14:12 -33.37500 -70.80151 1566 ft 13 kts 357°
2026-05-07 14:12 -33.37411 -70.80157 1567 ft 12 kts 356°
2026-05-07 14:12 -33.37332 -70.80163 1567 ft 11 kts 357°
2026-05-07 14:13 -33.37262 -70.80167 1567 ft 10 kts 358°
2026-05-07 14:13 -33.37216 -70.80168 1567 ft 11 kts 359°
2026-05-07 14:13 -33.37128 -70.80198 1567 ft 9 kts 317°
2026-05-07 14:13 -33.37110 -70.80233 1569 ft 6 kts 292°
2026-05-07 14:14 -33.37105 -70.80261 1570 ft 0 kts 277°
2026-05-07 14:14 -33.37106 -70.80297 1572 ft 9 kts 262°
2026-05-07 14:14 -33.37131 -70.80352 1574 ft 6 kts 224°
2026-05-07 14:14 -33.37174 -70.80374 1574 ft 8 kts 188°
2026-05-07 14:15 -33.37201 -70.80374 1573 ft 0 kts 179°
2026-05-07 14:15 -33.37203 -70.80374 1573 ft 6 kts 179°
2026-05-07 14:15 -33.37512 -70.80357 1574 ft 80 kts 177°
2026-05-07 14:15 -33.38270 -70.80316 1573 ft 135 kts 177°
2026-05-07 14:16 -33.39354 -70.80258 1647 ft 170 kts 178°
2026-05-07 14:16 -33.40539 -70.80225 2196 ft 171 kts 178°
2026-05-07 14:16 -33.41729 -70.80167 2801 ft 173 kts 177°
2026-05-07 14:16 -33.42987 -70.80091 3074 ft 190 kts 176°
2026-05-07 14:17 -33.44381 -70.80005 3223 ft 210 kts 176°
2026-05-07 14:17 -33.45921 -70.79911 3343 ft 234 kts 176°
2026-05-07 14:17 -33.47618 -70.79811 3694 ft 256 kts 176°
2026-05-07 14:17 -33.49424 -70.79709 4481 ft 263 kts 176°
2026-05-07 14:18 -33.51270 -70.79609 5311 ft 268 kts 176°
2026-05-07 14:18 -33.53148 -70.79508 6124 ft 273 kts 176°
2026-05-07 14:18 -33.55063 -70.79407 6924 ft 278 kts 177°
2026-05-07 14:18 -33.57002 -70.79305 7729 ft 280 kts 177°
2026-05-07 14:19 -33.58957 -70.79300 8556 ft 282 kts 186°
2026-05-07 14:19 -33.60885 -70.79785 9368 ft 283 kts 195°
2026-05-07 14:19 -33.62790 -70.80387 10236 ft 285 kts 194°
2026-05-07 14:19 -33.64783 -70.81010 10511 ft 307 kts 194°
2026-05-07 14:20 -33.66903 -70.81666 10676 ft 330 kts 194°
2026-05-07 14:20 -33.69209 -70.82377 10807 ft 352 kts 194°
2026-05-07 14:20 -33.71205 -70.82996 11207 ft 360 kts 194°
2026-05-07 14:21 -33.71562 -70.83107 11308 ft 360 kts 194°
2026-05-07 14:21 -33.73997 -70.83870 12047 ft 363 kts 195°
2026-05-07 14:22 -33.76439 -70.84635 12856 ft 363 kts 195°
2026-05-07 14:22 -33.78885 -70.85396 13672 ft 362 kts 195°
2026-05-07 14:22 -33.81322 -70.86153 14432 ft 361 kts 195°
2026-05-07 14:22 -33.83759 -70.86912 15122 ft 361 kts 195°
2026-05-07 14:23 -33.86155 -70.87656 15808 ft 360 kts 194°
2026-05-07 14:23 -33.88575 -70.88409 16504 ft 359 kts 194°
2026-05-07 14:23 -33.90988 -70.89166 17216 ft 358 kts 194°
2026-05-07 14:23 -33.93394 -70.89924 17900 ft 357 kts 194°
2026-05-07 14:24 -33.95799 -70.90681 18428 ft 358 kts 194°
2026-05-07 14:24 -33.98208 -70.91438 19002 ft 357 kts 194°
2026-05-07 14:24 -34.00613 -70.92194 19559 ft 357 kts 194°
2026-05-07 14:24 -34.03025 -70.92933 20117 ft 358 kts 193°
2026-05-07 14:25 -34.05452 -70.93616 20660 ft 358 kts 193°
2026-05-07 14:25 -34.07890 -70.94267 21120 ft 359 kts 193°
2026-05-07 14:25 -34.10335 -70.94907 21538 ft 360 kts 193°
2026-05-07 14:25 -34.12787 -70.95549 22035 ft 362 kts 193°
2026-05-07 14:26 -34.15251 -70.96203 22554 ft 363 kts 193°
2026-05-07 14:26 -34.17714 -70.96867 23030 ft 364 kts 193°
2026-05-07 14:26 -34.20191 -70.97541 23529 ft 365 kts 193°
2026-05-07 14:26 -34.22647 -70.98210 23981 ft 367 kts 193°
2026-05-07 14:27 -34.25140 -70.98890 24359 ft 368 kts 193°
2026-05-07 14:27 -34.27646 -70.99574 24723 ft 369 kts 193°
2026-05-07 14:27 -34.30155 -71.00260 25073 ft 370 kts 193°
2026-05-07 14:27 -34.32680 -71.00950 25398 ft 371 kts 193°
2026-05-07 14:28 -34.35206 -71.01642 25738 ft 373 kts 193°
2026-05-07 14:28 -34.37743 -71.02336 26098 ft 374 kts 193°
2026-05-07 14:28 -34.40285 -71.03032 26451 ft 375 kts 193°
2026-05-07 14:28 -34.42835 -71.03728 26788 ft 376 kts 193°
2026-05-07 14:29 -34.45395 -71.04427 27121 ft 378 kts 193°
2026-05-07 14:29 -34.47962 -71.05130 27464 ft 378 kts 192°
2026-05-07 14:29 -34.50518 -71.05832 27900 ft 375 kts 192°
2026-05-07 14:29 -34.53027 -71.06524 28343 ft 373 kts 192°
2026-05-07 14:30 -34.55549 -71.07222 28793 ft 369 kts 192°
2026-05-07 14:30 -34.58051 -71.07916 29202 ft 368 kts 192°
2026-05-07 14:30 -34.60549 -71.08604 29331 ft 366 kts 192°
2026-05-07 14:31 -34.65452 -71.09948 29350 ft 359 kts 192°
2026-05-07 14:31 -34.70322 -71.11281 29357 ft 359 kts 192°
2026-05-07 14:32 -34.75193 -71.12597 29354 ft 359 kts 191°
2026-05-07 14:32 -34.80088 -71.13778 29358 ft 358 kts 191°
2026-05-07 14:33 -34.84984 -71.14922 29353 ft 358 kts 191°
2026-05-07 14:33 -34.89877 -71.16096 29361 ft 358 kts 191°
2026-05-07 14:34 -34.94766 -71.17288 29361 ft 358 kts 191°
2026-05-07 14:34 -34.99624 -71.18475 29363 ft 358 kts 191°
2026-05-07 14:35 -35.04516 -71.19669 29364 ft 358 kts 191°
2026-05-07 14:35 -35.09411 -71.20867 29369 ft 359 kts 191°
2026-05-07 14:36 -35.14309 -71.22070 29367 ft 359 kts 191°
2026-05-07 14:36 -35.19210 -71.23268 29373 ft 359 kts 191°
2026-05-07 14:37 -35.24109 -71.24463 29371 ft 359 kts 191°
2026-05-07 14:37 -35.31445 -71.26270 29384 ft 358 kts 191°
2026-05-07 14:38 -35.36305 -71.27467 29376 ft 358 kts 191°
2026-05-07 14:38 -35.41197 -71.28669 29370 ft 358 kts 191°
2026-05-07 14:39 -35.46080 -71.29875 29373 ft 358 kts 191°
2026-05-07 14:39 -35.50965 -71.31088 29369 ft 358 kts 191°
2026-05-07 14:40 -35.55848 -71.32293 29383 ft 358 kts 192°
2026-05-07 14:40 -35.60695 -71.33490 29374 ft 357 kts 192°
2026-05-07 14:41 -35.65578 -71.34698 29369 ft 358 kts 192°
2026-05-07 14:41 -35.70457 -71.35916 29366 ft 358 kts 192°
2026-05-07 14:42 -35.75340 -71.37138 29370 ft 358 kts 192°
2026-05-07 14:42 -35.80228 -71.38356 29399 ft 358 kts 192°
2026-05-07 14:43 -35.85105 -71.39567 29395 ft 357 kts 192°
2026-05-07 14:43 -35.89975 -71.40784 29395 ft 357 kts 192°
2026-05-07 14:44 -35.94851 -71.42006 29387 ft 357 kts 192°
2026-05-07 14:44 -35.99717 -71.43228 29383 ft 357 kts 192°
2026-05-07 14:45 -36.04550 -71.44440 29412 ft 356 kts 192°
2026-05-07 14:45 -36.09404 -71.45658 29398 ft 356 kts 192°
2026-05-07 14:46 -36.14263 -71.46881 29386 ft 356 kts 192°
2026-05-07 14:46 -36.19121 -71.48098 29386 ft 356 kts 192°
2026-05-07 14:47 -36.23981 -71.49317 29375 ft 356 kts 192°
2026-05-07 14:47 -36.28842 -71.50547 29386 ft 357 kts 193°
2026-05-07 14:48 -36.33711 -71.51779 29375 ft 357 kts 193°
2026-05-07 14:48 -36.38588 -71.53008 29372 ft 358 kts 193°
2026-05-07 14:49 -36.43472 -71.54248 29366 ft 358 kts 193°
2026-05-07 14:49 -36.48320 -71.55485 29360 ft 359 kts 193°
2026-05-07 14:50 -36.53223 -71.56732 29339 ft 360 kts 193°
2026-05-07 14:50 -36.58132 -71.57980 29346 ft 360 kts 193°
2026-05-07 14:51 -36.63058 -71.59230 29356 ft 361 kts 193°
2026-05-07 14:51 -36.67984 -71.60488 29360 ft 361 kts 193°
2026-05-07 14:52 -36.72912 -71.61742 29360 ft 362 kts 193°
2026-05-07 14:52 -36.77840 -71.63000 29372 ft 362 kts 193°
2026-05-07 14:53 -36.82780 -71.64268 29369 ft 362 kts 193°
2026-05-07 14:53 -36.87688 -71.65526 29374 ft 362 kts 193°
2026-05-07 14:54 -36.92626 -71.66799 29371 ft 362 kts 193°
2026-05-07 14:54 -36.97569 -71.68066 29370 ft 363 kts 193°
2026-05-07 14:55 -37.02518 -71.69337 29370 ft 363 kts 193°
2026-05-07 14:55 -37.07473 -71.70617 29370 ft 364 kts 193°
2026-05-07 14:56 -37.12442 -71.71901 29373 ft 364 kts 193°
2026-05-07 14:56 -37.17418 -71.73175 29378 ft 364 kts 193°
2026-05-07 14:57 -37.22383 -71.74463 29376 ft 364 kts 193°
2026-05-07 14:57 -37.27347 -71.75749 29393 ft 364 kts 193°
2026-05-07 14:58 -37.32308 -71.77035 29385 ft 364 kts 193°
2026-05-07 14:58 -37.37260 -71.78324 29387 ft 363 kts 193°
2026-05-07 14:59 -37.42210 -71.79613 29382 ft 363 kts 193°
2026-05-07 14:59 -37.47162 -71.80907 29380 ft 363 kts 193°
2026-05-07 15:00 -37.52083 -71.82188 29379 ft 363 kts 193°
2026-05-07 15:00 -37.57029 -71.83479 29386 ft 363 kts 193°
2026-05-07 15:01 -37.61987 -71.84771 29392 ft 363 kts 193°
2026-05-07 15:01 -37.66938 -71.86069 29386 ft 363 kts 193°
2026-05-07 15:02 -37.71889 -71.87365 29389 ft 363 kts 194°
2026-05-07 15:02 -37.75989 -71.88562 29389 ft 363 kts 195°
2026-05-07 15:03 -37.80889 -71.90138 29387 ft 364 kts 195°
2026-05-07 15:03 -37.86619 -71.91967 29385 ft 366 kts 195°
2026-05-07 15:04 -37.90771 -71.93265 29383 ft 367 kts 195°
2026-05-07 15:04 -37.95700 -71.94808 29402 ft 367 kts 195°
2026-05-07 15:05 -38.00655 -71.96356 29400 ft 367 kts 195°
2026-05-07 15:05 -38.05609 -71.97901 29397 ft 366 kts 195°
2026-05-07 15:06 -38.10558 -71.99448 29400 ft 366 kts 195°
2026-05-07 15:06 -38.15509 -72.01011 29398 ft 366 kts 195°
2026-05-07 15:07 -38.20453 -72.02565 29410 ft 366 kts 196°
2026-05-07 15:07 -38.25405 -72.04126 29388 ft 366 kts 196°
2026-05-07 15:08 -38.30364 -72.05694 29397 ft 366 kts 196°
2026-05-07 15:08 -38.35284 -72.07253 29390 ft 366 kts 196°
2026-05-07 15:09 -38.40238 -72.08812 29390 ft 367 kts 196°
2026-05-07 15:09 -38.45199 -72.10383 29416 ft 367 kts 196°
2026-05-07 15:10 -38.50149 -72.11953 29409 ft 366 kts 196°
2026-05-07 15:10 -38.55096 -72.13528 29409 ft 366 kts 196°
2026-05-07 15:11 -38.60034 -72.15107 29403 ft 366 kts 197°
2026-05-07 15:11 -38.64974 -72.16691 29426 ft 366 kts 197°
2026-05-07 15:12 -38.69887 -72.18270 29420 ft 366 kts 197°
2026-05-07 15:12 -38.74836 -72.19856 29412 ft 367 kts 197°
2026-05-07 15:13 -38.79792 -72.21441 29406 ft 367 kts 197°
2026-05-07 15:13 -38.84742 -72.23026 29397 ft 367 kts 197°
2026-05-07 15:14 -38.89699 -72.24622 29406 ft 367 kts 197°
2026-05-07 15:14 -38.94651 -72.26224 29377 ft 367 kts 197°
2026-05-07 15:15 -38.99594 -72.27816 29384 ft 366 kts 197°
2026-05-07 15:15 -39.04536 -72.29403 29379 ft 366 kts 197°
2026-05-07 15:16 -39.09473 -72.30993 29385 ft 366 kts 197°
2026-05-07 15:16 -39.14409 -72.32583 29387 ft 366 kts 198°
2026-05-07 15:17 -39.19344 -72.34186 29371 ft 366 kts 198°
2026-05-07 15:17 -39.24287 -72.35797 29365 ft 366 kts 198°
2026-05-07 15:18 -39.29237 -72.37403 29367 ft 367 kts 198°
2026-05-07 15:18 -39.34192 -72.39011 29385 ft 367 kts 198°
2026-05-07 15:19 -39.39118 -72.40621 29373 ft 368 kts 198°
2026-05-07 15:19 -39.44094 -72.42246 29364 ft 369 kts 198°
2026-05-07 15:20 -39.49077 -72.43874 29365 ft 369 kts 198°
2026-05-07 15:20 -39.54057 -72.45509 29354 ft 369 kts 198°
2026-05-07 15:21 -39.59038 -72.47137 29368 ft 369 kts 198°
2026-05-07 15:21 -39.64019 -72.48770 29358 ft 370 kts 198°
2026-05-07 15:22 -39.69008 -72.50406 29361 ft 370 kts 198°
2026-05-07 15:22 -39.74011 -72.52054 29047 ft 372 kts 198°
2026-05-07 15:23 -39.76527 -72.52888 28770 ft 373 kts 198°
2026-05-07 15:23 -39.79016 -72.53700 28518 ft 374 kts 198°
2026-05-07 15:23 -39.81581 -72.54524 28253 ft 376 kts 197°
2026-05-07 15:23 -39.84124 -72.55335 27995 ft 377 kts 197°
2026-05-07 15:24 -39.86677 -72.56152 27738 ft 378 kts 197°
2026-05-07 15:24 -39.89237 -72.56974 27485 ft 380 kts 197°
2026-05-07 15:24 -39.91773 -72.57794 27235 ft 381 kts 197°
2026-05-07 15:24 -39.94346 -72.58626 26981 ft 382 kts 197°
2026-05-07 15:25 -39.96929 -72.59462 26738 ft 384 kts 197°
2026-05-07 15:25 -39.99527 -72.60304 26474 ft 385 kts 197°
2026-05-07 15:25 -40.02129 -72.61146 26224 ft 386 kts 197°
2026-05-07 15:25 -40.04744 -72.61993 25986 ft 387 kts 197°
2026-05-07 15:26 -40.07365 -72.62845 25753 ft 389 kts 197°
2026-05-07 15:26 -40.09995 -72.63702 25514 ft 391 kts 197°
2026-05-07 15:26 -40.12640 -72.64560 25280 ft 392 kts 197°
2026-05-07 15:26 -40.15290 -72.65422 25047 ft 393 kts 197°
2026-05-07 15:27 -40.17949 -72.66290 24816 ft 394 kts 197°
2026-05-07 15:27 -40.20625 -72.67163 24581 ft 396 kts 197°
2026-05-07 15:27 -40.23301 -72.68036 24353 ft 397 kts 197°
2026-05-07 15:27 -40.25985 -72.68909 24145 ft 398 kts 197°
2026-05-07 15:28 -40.28674 -72.69782 23515 ft 398 kts 197°
2026-05-07 15:28 -40.31357 -72.70654 22565 ft 396 kts 197°
2026-05-07 15:28 -40.34010 -72.71517 21818 ft 390 kts 197°
2026-05-07 15:28 -40.36622 -72.72367 21086 ft 384 kts 197°
2026-05-07 15:29 -40.39204 -72.73212 20364 ft 380 kts 197°
2026-05-07 15:29 -40.41747 -72.74047 19671 ft 375 kts 197°
2026-05-07 15:29 -40.44260 -72.74874 19004 ft 370 kts 197°
2026-05-07 15:29 -40.46746 -72.75692 18317 ft 366 kts 197°
2026-05-07 15:30 -40.49193 -72.76496 17667 ft 359 kts 198°
2026-05-07 15:30 -40.51595 -72.77287 17076 ft 352 kts 198°
2026-05-07 15:30 -40.53947 -72.78064 16506 ft 345 kts 198°
2026-05-07 15:30 -40.56234 -72.78822 15967 ft 341 kts 198°
2026-05-07 15:31 -40.58527 -72.79584 15442 ft 339 kts 198°
2026-05-07 15:31 -40.60802 -72.80338 14925 ft 337 kts 198°
2026-05-07 15:31 -40.63074 -72.81087 14433 ft 335 kts 198°
2026-05-07 15:31 -40.65328 -72.81830 13912 ft 333 kts 198°
2026-05-07 15:32 -40.67569 -72.82570 13416 ft 331 kts 198°
2026-05-07 15:32 -40.69800 -72.83309 12963 ft 330 kts 198°
2026-05-07 15:32 -40.72018 -72.84044 12473 ft 328 kts 198°
2026-05-07 15:32 -40.74224 -72.84776 12000 ft 326 kts 198°
2026-05-07 15:33 -40.76407 -72.85501 11649 ft 317 kts 198°
2026-05-07 15:33 -40.78498 -72.86189 11530 ft 302 kts 198°
2026-05-07 15:33 -40.80488 -72.86843 11403 ft 287 kts 198°
2026-05-07 15:33 -40.82381 -72.87466 11276 ft 274 kts 198°
2026-05-07 15:34 -40.84188 -72.88065 11149 ft 262 kts 198°
2026-05-07 15:34 -40.85908 -72.88635 10945 ft 250 kts 199°
2026-05-07 15:34 -40.87571 -72.89190 10736 ft 243 kts 199°
2026-05-07 15:34 -40.89212 -72.89742 10647 ft 244 kts 199°
2026-05-07 15:35 -40.90855 -72.90294 10546 ft 244 kts 199°
2026-05-07 15:35 -40.92503 -72.90846 10431 ft 245 kts 198°
2026-05-07 15:35 -40.94157 -72.91400 10321 ft 245 kts 199°
2026-05-07 15:35 -40.95757 -72.92153 10215 ft 243 kts 206°
2026-05-07 15:36 -40.97323 -72.93018 10099 ft 244 kts 205°
2026-05-07 15:36 -40.98889 -72.93879 9989 ft 244 kts 205°
2026-05-07 15:36 -41.00464 -72.94743 9576 ft 245 kts 205°
2026-05-07 15:36 -41.02037 -72.95605 9194 ft 245 kts 205°
2026-05-07 15:37 -41.03615 -72.96472 8851 ft 247 kts 205°
2026-05-07 15:37 -41.05202 -72.97343 8498 ft 247 kts 205°
2026-05-07 15:37 -41.06788 -72.98210 8135 ft 245 kts 205°
2026-05-07 15:37 -41.08357 -72.99068 7790 ft 242 kts 205°
2026-05-07 15:38 -41.09894 -72.99909 7435 ft 235 kts 204°
2026-05-07 15:38 -41.11373 -73.00720 7141 ft 225 kts 204°
2026-05-07 15:38 -41.12792 -73.01499 6802 ft 222 kts 204°
2026-05-07 15:38 -41.14202 -73.02274 6471 ft 217 kts 204°
2026-05-07 15:39 -41.15585 -73.03034 6148 ft 212 kts 204°
2026-05-07 15:39 -41.16933 -73.03776 5842 ft 208 kts 204°
2026-05-07 15:39 -41.18263 -73.04508 5540 ft 205 kts 204°
2026-05-07 15:39 -41.19565 -73.05227 5249 ft 199 kts 204°
2026-05-07 15:40 -41.20803 -73.05911 4977 ft 186 kts 204°
2026-05-07 15:40 -41.21965 -73.06554 4698 ft 176 kts 204°
2026-05-07 15:40 -41.23066 -73.07163 4457 ft 167 kts 204°
2026-05-07 15:40 -41.24091 -73.07730 4225 ft 154 kts 204°
2026-05-07 15:41 -41.25051 -73.08259 4002 ft 146 kts 204°
2026-05-07 15:41 -41.25997 -73.08686 3796 ft 143 kts 194°
2026-05-07 15:41 -41.26991 -73.08797 3590 ft 144 kts 185°
2026-05-07 15:41 -41.27989 -73.08830 3379 ft 143 kts 185°
2026-05-07 15:42 -41.28987 -73.08866 3169 ft 143 kts 185°
2026-05-07 15:42 -41.29983 -73.08902 2962 ft 143 kts 185°
2026-05-07 15:42 -41.30979 -73.08939 2759 ft 143 kts 185°
2026-05-07 15:42 -41.31976 -73.08976 2550 ft 143 kts 185°
2026-05-07 15:43 -41.32938 -73.09010 2344 ft 136 kts 184°
2026-05-07 15:43 -41.33877 -73.09043 2152 ft 135 kts 184°
2026-05-07 15:43 -41.34814 -73.09077 1948 ft 134 kts 184°
2026-05-07 15:43 -41.35748 -73.09110 1762 ft 134 kts 184°
2026-05-07 15:44 -41.36680 -73.09143 1560 ft 134 kts 184°
2026-05-07 15:44 -41.37602 -73.09176 1371 ft 134 kts 183°
2026-05-07 15:44 -41.38537 -73.09208 1174 ft 134 kts 183°
2026-05-07 15:44 -41.39473 -73.09240 974 ft 135 kts 183°
2026-05-07 15:45 -41.40407 -73.09274 787 ft 134 kts 184°
2026-05-07 15:45 -41.41338 -73.09307 603 ft 134 kts 183°
2026-05-07 15:45 -41.42273 -73.09338 421 ft 134 kts 183°
2026-05-07 15:45 -41.43197 -73.09370 308 ft 127 kts 184°
2026-05-07 15:46 -41.44011 -73.09401 292 ft 17 kts 182°
2026-05-07 15:46 -41.44066 -73.09464 295 ft 9 kts 260°
2026-05-07 15:46 -41.44067 -73.09498 296 ft 3 kts 269°
2026-05-07 15:47 -41.44066 -73.09573 300 ft 4 kts 276°
2026-05-07 15:47 -41.44062 -73.09593 299 ft 5 kts 290°
2026-05-07 15:47 -41.44036 -73.09618 300 ft 4 kts 347°
2026-05-07 15:47 -41.44011 -73.09619 301 ft 5 kts 358°
2026-05-07 15:48 -41.43915 -73.09617 301 ft 20 kts
2026-05-07 15:48 -41.43779 -73.09612 301 ft 19 kts
2026-05-07 15:48 -41.43648 -73.09608 303 ft 18 kts
2026-05-07 15:48 -41.43531 -73.09603 301 ft 15 kts
2026-05-07 15:49 -41.43465 -73.09601 303 ft 14 kts
2026-05-07 15:49 -41.43381 -73.09598 302 ft 8 kts
2026-05-07 15:49 -41.43349 -73.09599 302 ft 3 kts 349°
2026-05-07 15:49 -41.43335 -73.09620 304 ft 5 kts 294°
2026-05-07 15:50 -41.43332 -73.09667 304 ft 5 kts 272°
2026-05-07 15:50 -41.43331 -73.09715 303 ft 4 kts 271°
2026-05-07 15:50 -41.43330 -73.09735 303 ft 1 kts 271°
2026-05-07 15:50 -41.43330 -73.09745 304 ft 0 kts 271°